Red Bluff, CA

11:47 AM PST on December 05, 2019 (GMT -0800)
Red Bluff Municipal

Weather History for KRBL - October, 2019

Change the Weather History Date:

Tuesday, October 1, 2019

  Actual Average Record
Temperature  
Mean Temperature 58 °F -  
Max Temperature 73 °F 88 °F 105 °F (2001)
Min Temperature 43 °F 56 °F 41 °F (1971)
Degree Days  
Heating Degree Days 7    
Growing Degree Days 8 (Base 50)    
Moisture  
Dew Point 35 °F    
Average Humidity 47    
Maximum Humidity 82    
Minimum Humidity 10    
Precipitation  
Precipitation 0.00 in - - ()
Sea Level Pressure  
Sea Level Pressure 29.98 in    
Wind  
Wind Speed 8 mph (NNW)    
Max Wind Speed 14 mph    
Max Gust Speed 22 mph    
Visibility 10 miles    
Events      
Averages and records for this station are not official NWS values.
T = Trace of Precipitation, MM = Missing Value Source: NWS Daily Summary

Daily Weather History Graph

Daily Weather History Graph

Search for Another Location

Airport or City:

Astronomy

Oct. 01, 2019 Rise Set
Actual Time 7:05 AM PDT 6:51 PM PDT
Civil Twilight 6:38 AM PDT 7:18 PM PDT
Nautical Twilight 6:06 AM PDT 7:49 PM PDT
Astronomical Twilight 5:34 AM PDT 8:21 PM PDT
Moon 10:27 AM PDT (10/1) 9:08 PM PDT (10/1)
Length of Visible Light 12h 40m
Length of Day
11h 46m
Waxing Crescent, 13% of the Moon is Illuminated
Oct 1
Waxing Crescent
Oct 5
First Quarter
Oct 13
Full
Oct 21
Last Quarter
Oct 27
New

Hourly Weather History & Observations

Time (PDT) Temp. Windchill Dew Point Humidity Pressure Visibility Wind Dir Wind Speed Gust Speed Precip Events Conditions
12:54 AM 48.9 °F - 39.9 °F 71% 29.99 in 10.0 mi NW 9.2 mph - N/A   Clear
1:54 AM 48.0 °F - 39.9 °F 74% 29.99 in 10.0 mi NNW 8.1 mph - N/A   Clear
2:54 AM 46.0 °F 43.1 °F 39.9 °F 79% 29.99 in 10.0 mi North 5.8 mph - N/A   Clear
3:54 AM 46.0 °F 42.5 °F 39.0 °F 76% 29.97 in 10.0 mi North 6.9 mph - N/A   Clear
4:54 AM 45.0 °F 41.2 °F 39.0 °F 80% 29.98 in 10.0 mi NNW 6.9 mph - N/A   Clear
5:54 AM 44.1 °F 40.8 °F 37.9 °F 79% 29.98 in 10.0 mi North 5.8 mph - N/A   Clear
6:54 AM 43.0 °F 39.5 °F 37.9 °F 82% 29.99 in 10.0 mi NNE 5.8 mph - N/A   Clear
7:54 AM 46.9 °F - 39.9 °F 77% 30.00 in 10.0 mi NNE 4.6 mph - N/A   Clear
8:54 AM 54.0 °F - 39.9 °F 59% 30.01 in 10.0 mi NW 4.6 mph - N/A   Clear
9:54 AM 60.1 °F - 39.0 °F 46% 30.01 in 10.0 mi NNW 12.7 mph 21.9 mph N/A   Clear
10:54 AM 64.0 °F - 37.0 °F 37% 30.01 in 10.0 mi NNW 11.5 mph - N/A   Clear
11:54 AM 66.9 °F - 34.0 °F 30% 29.99 in 10.0 mi North 12.7 mph 19.6 mph N/A   Clear
12:54 PM 69.1 °F - 33.1 °F 26% 29.99 in 10.0 mi North 12.7 mph - N/A   Clear
1:54 PM 71.1 °F - 28.9 °F 21% 29.97 in 10.0 mi NW 13.8 mph - N/A   Clear
2:54 PM 72.0 °F - 28.9 °F 20% 29.96 in 10.0 mi North 8.1 mph - N/A   Clear
3:54 PM 73.9 °F - 28.9 °F 19% 29.95 in 10.0 mi Variable 4.6 mph - N/A   Clear
4:54 PM 73.0 °F - 28.9 °F 20% 29.94 in 10.0 mi NW 5.8 mph - N/A   Clear
5:54 PM 73.0 °F - 30.0 °F 20% 29.94 in 10.0 mi Calm Calm - N/A   Clear
6:54 PM 66.9 °F - 32.0 °F 27% 29.96 in 10.0 mi Calm Calm - N/A   Clear
7:54 PM 60.1 °F - 33.1 °F 36% 29.96 in 10.0 mi WNW 5.8 mph - N/A   Clear
8:54 PM 55.9 °F - 32.0 °F 40% 29.97 in 10.0 mi West 9.2 mph - N/A   Clear
9:54 PM 55.9 °F - 30.9 °F 39% 29.97 in 10.0 mi WNW 8.1 mph - N/A   Clear
10:54 PM 52.0 °F - 33.1 °F 49% 29.99 in 10.0 mi NNW 5.8 mph - N/A   Clear
11:54 PM 46.9 °F - 35.1 °F 63% 29.99 in 10.0 mi North 5.8 mph - N/A   Clear